Location: LDNL
(36.4545°S, 141.6685°E)
Time: 23:58:47
(UTC+10:00)

Envisat - Pass Details

Date: 28 June 2022
Orbit: 763 x 765 km, 98.2° (Epoch: 16 August)

Event Time Altitude Azimuth Distance (km) Brightness Sun altitude
Rises 18:29:23 0° 189° (S) 3,265 6.1 -12.2°
Reaches altitude 10° 18:32:48 10° 213° (SSW) 2,329 5.7 -12.9°
Maximum altitude 18:35:22 14° 243° (WSW) 2,050 5.8 -13.3°
Drops below altitude 10° 18:37:57 10° 274° (W) 2,316 6.8 -13.8°
Sets 18:41:20 0° 298° (WNW) 3,233 8.0 -14.5°
